Location: Unspecified
(45.3712°N, 0.6436°E)
Time: 03:16:29
(UTC+01:00)

Tiangong 2 - Visible Passes

Search period start: 19 February 2018 00:00
Search period end: 01 March 2018 00:00
Orbit: 385 x 388 km, 42.8° (Epoch: 18 February)

Date Brightness Start Highest point End Pass type
(mag) Time Alt. Az. Time Alt. Az. Time Alt. Az.
19 Feb 1.8 19:10:04 10° W 19:13:09 48° S 19:16:15 10° ESE visible
19 Feb 3.6 20:47:06 10° WSW 20:48:35 18° SW 20:48:35 18° SW visible
20 Feb 2.7 19:47:57 10° W 19:50:47 29° SSW 19:52:36 17° SSE visible
21 Feb 3.7 20:26:33 10° WSW 20:28:12 13° SSW 20:28:58 13° SSW visible
22 Feb 3.4 19:27:01 10° WSW 19:29:27 20° SSW 19:31:53 10° SSE visible
24 Feb 4.0 19:06:26 10° WSW 19:08:03 13° SSW 19:09:38 10° S visible
